Regional Weather Roundup
Issued by NWS

Home | Current Version | Previous Version | Text Only | Print | Product List | Glossary Off
Versions: 1 2 3 4 5 6 7 8 9 10 11 12 13 14 15 16 17 18 19 20 21 22 23 24 25 26 27 28 29 30 31 32 33 34 35 36 37 38 39 40 41 42 43 44 45 46 47 48 49 50

456
ASUS43 KMKX 250311
RWRWI

WISCONSIN REGIONAL WEATHER ROUNDUP
NATIONAL WEATHER SERVICE MILWAUKEE/SULLIVAN WI
1000 PM CDT TUE MAY 24 2016

NOTE: "FAIR" INDICATES FEW OR NO CLOUDS BELOW 12,000 FEET WITH NO
SIGNIFICANT WEATHER AND/OR OBSTRUCTIONS TO VISIBILITY.

WIZ001-002-006>008-014>016-023>028-250400-
NORTHWEST WISCONSIN

CITY           SKY/WX    TMP DP  RH WIND       PRES   REMARKS
SUPERIOR ARPT  FOG       48  48 100 NE13G18   30.00R VSB 1/2
ASHLAND        FOG       50  50 100 N8        30.01R VSB 1/2
HAYWARD        CLEAR     64  60  87 NE5       29.97R
SIREN          CLEAR     63  59  88 CALM      29.94R
CUMBERLAND     CLOUDY    61  55  82 CALM      29.96R
RICE LAKE      CLOUDY    66  58  76 CALM      29.96R
CHETEK         CLOUDY    65  61  86 CALM      29.95R
LADYSMITH      PTCLDY    63  58  86 NE6       29.98R
EAU CLAIRE     PTCLDY    64  54  69 CALM      29.93R
MENOMONIE      PTCLDY    68  54  59 CALM      29.93R
NEW RICHMOND   CLEAR     66  56  68 E3        29.94R
OSCEOLA        CLEAR     66  60  82 E5        29.95R
$$

WIZ003>005-009-010-017-018-250400-
NORTH CENTRAL WISCONSIN

CITY           SKY/WX    TMP DP  RH WIND       PRES   REMARKS
MANITOWISH WTR NOT AVBL
ARBOR VITAE    CLEAR     61  59  93 CALM      29.99R
WOODRUFF       CLEAR     61  59  93 CALM      29.99R
RHINELANDER    PTCLDY    60  57  89 CALM      29.99R
EAGLE RIVER      N/A     58  57  97 CALM      29.99R
LAND O LAKES   PTCLDY    58  58  97 CALM      30.00R
PHILLIPS       CLEAR     61  58  88 N3        29.98R
TOMAHAWK       CLEAR     60  56  84 CALM      29.99R
MEDFORD        CLEAR     60  60 100 CALM      29.97R
MERRILL        CLEAR     64  57  77 NE5       29.98R
$$

WIZ029-030-035-036-043>047-250400-
CENTRAL WISCONSIN

CITY           SKY/WX    TMP DP  RH WIND       PRES   REMARKS
WAUSAU         CLEAR     68  57  68 CALM      29.94R
MOSINEE        CLEAR     66  57  72 CALM      29.97R
MARSHFIELD     CLEAR     69  56  62 CALM      29.95R
STEVENS POINT  CLEAR     61  55  82 CALM      29.96R
WAUPACA        CLEAR     67  58  72 CALM      29.95R
WAUTOMA        CLEAR     64  58  80 CALM      29.95R
WISC RAPIDS    CLEAR     66  57  72 CALM      29.96R
CAMP DOUGLAS   CLEAR     59  59 100 CALM      29.94S
$$

WIZ011>013-019>022-031-037>040-048>050-250400-
NORTHEAST WISCONSIN

CITY           SKY/WX    TMP DP  RH WIND       PRES   REMARKS
ANTIGO         CLEAR     63  57  82 N9        29.98R
SHAWANO        CLEAR     64  58  80 CALM      29.94R
OCONTO         CLEAR     61  61 100 CALM      29.94S
STURGEON BAY   NOT AVBL
GREEN BAY      CLEAR     66  58  75 N3        29.94R
MANITOWOC      PTCLDY    61  56  83 SW3       29.95R
APPLETON       PTCLDY    70  52  52 W5        29.93R
CLINTONVILLE   CLEAR     63  54  72 CALM      29.94R
OSHKOSH        CLEAR     70  58  65 SW3       29.95R
$$

WIZ032>034-041-042-053>061-250400-
SOUTHWEST WISCONSIN

CITY           SKY/WX    TMP DP  RH WIND       PRES   REMARKS
LA CROSSE      CLEAR     70  60  70 E3        29.92R
SPARTA         CLEAR     63  58  83 CALM      29.95S
VIROQUA        CLEAR     73  55  51 SE3       29.95S
BOSCOBEL       CLEAR     66  62  87 CALM      29.93R
PRAIRIE DU CHI CLEAR     70  60  72 CALM      29.92R
PLATTEVILLE    CLOUDY    74  60  61 NE5       29.95R
$$

WIZ056-057-062-063-064-067-068-250400-
SOUTH CENTRAL WISCONSIN

CITY           SKY/WX    TMP DP  RH WIND       PRES   REMARKS
REEDSBURG      CLEAR     65  59  81 CALM      29.94R
BARABOO/DELLS  CLEAR     64  57  77 CALM      29.95R
LONE ROCK      CLEAR     66  62  87 CALM      29.94R
MINERAL POINT  CLEAR     75  54  46 NE5       29.95S
MADISON        PTCLDY    69  60  73 CALM      29.95R
MIDDLETON      PTCLDY    68  60  75 CALM      29.96R
WATERTOWN      PTCLDY    68  62  81 CALM      29.95R
MONROE         PTCLDY    72  59  64 E5        29.96R
JANESVILLE     NOT AVBL
$$

WIZ051-052-058>065-066-070>072-250400-
SOUTHEAST WISCONSIN

CITY           SKY/WX    TMP DP  RH WIND       PRES   REMARKS
MILWAUKEE      CLOUDY    63  53  70 SE5       29.96R
WAUKESHA         N/A     63  63 100 CALM      29.97R FOG
MILWAUKEE/TIMM PTCLDY    66  63  88 CALM      29.97R
RACINE         MOCLDY    62  49  62 E3        29.98R
BURLINGTON     MOCLDY    67  57  69 CALM      29.96R
KENOSHA        CLOUDY    70  53  54 NE6       29.96R
FOND DU LAC    CLEAR     67  61  81 SW3       29.95R
SHEBOYGAN      CLEAR     63  55  75 S6        29.96R
WEST BEND      PTCLDY    64  59  82 CALM      29.97R
JUNEAU         PTCLDY    71  59  66 CALM      29.97R
$$

LSZ147-162-250400-
LAKE SUPERIOR

STATION/POSITION TIME  TEMP    WIND        PRES    WAVE
                       AIR SEA DIR/SP/G            HT/PER
                 (UTC) (F)     (DEG/KT/KT) (MB)    (FT/S)
W MID LAKE BUOY  0250   42 38   80/ 14/ 16 1016.4R   2/ 3
DEVILS ISLAND    0300   46      90/ 16/ 18 1017.3R
PORT WING        0240   45      30/ 15/ 22 1015.6
SAXON HARBOR     0200   47      10/  1/  2 1014.6S
$$

LMZ867-665-643>646-250400-
LAKE MICHIGAN

STATION/POSITION TIME  TEMP    WIND        PRES    WAVE
                       AIR SEA DIR/SP/G            HT/PER
                 (UTC) (F)     (DEG/KT/KT) (MB)    (FT/S)
CHAMBERS ISLAND  0200   61      80/  2/  3 1013.9R
N MID LAKE BUOY  0250   48 44  160/  8/ 10 1014.1R   2/ 5
NORTHPORT PIER   0200   52     130/  1/  2 1014.2R
SISTER BAY       0204   62      CALM  /  3   N/A
ALGOMA LAKESHORE 0217          210/  5/  6   N/A
KEWAUNEE LAKESHO 0200   59                 1012.8R
SHEBOYGAN LAKESH 0300   62     190/  5/  6 1014.5R
PORT WASHINGTON  0200   60     150/  2/  3 1014.9R
S MID LAKE BUOY  0250   62 49  300/  6/ 12 1014.5R   0
KENOSHA   LAKESH 0300   57      40/  6/  6 1014.6R
$$

TC  - TEMPERATURE IN CELSIUS
VSB - VISIBILITY IN STATUTE MILES
WCI - WIND CHILL INDEX
HX  - HEAT INDEX





USA.gov is the U.S. government's official web portal to all federal, state and local government web resources and services.